Weather in Tulum

Mexico     20°11′44″N   87°27′08″W
temp.,
°C
wind,
m/s
gust,
m/s
humid.,
%
clouds,
%
prec.,
mm/h
press.,
hPa
HPBL,
m
15 may, sat
sat1501:00+23ne129626 1.1 101665
04:00+23nne139793 0.3 101586
07:00+23nne139649 0.4 1016113
10:00+27ene2479100 1.9 1017770
13:00+32ese4450100 2.8 10161656
16:00+30ese455697 0.1 10141418
19:00+27e267565 0.1 1014729
22:00+24ene258885 0.2 1016227
16 may, sun
sun1601:00+24ene258990 0.6 1015185
04:00+23ene149379 0.1 1014136
07:00+24ne149341 0.3 1015146
10:00+27e258128 1.9 1017809
13:00+30ese346454 3.3 10151311
16:00+31ese3452100 0.3 10131537
19:00+27ese3773100 0.3 1014805
22:00+26e3779100 0.0 1015535
17 may, mon
mon1701:00+26ese3882100 0.0 1014563
04:00+25ese2485100 0.0 1013203
07:00+25e2788100 0.1 1014311
10:00+28e357653 1.1 1015983
13:00+29ese3466100 2.9 10141106
16:00+30ese3458100 0.4 10121396
19:00+26ese2682100 0.6 1013437
22:00+26ese388269 0.0 1014638
18 may, tue
tue1801:00+26ese388199 0.0 1013659
04:00+25ese2786100 0.1 1012337
07:00+25ese268898 0.3 1013265
10:00+28se3573100 1.3 10141028
13:00+31ese3558100 1.6 10131492
16:00+31ese455998 0.1 10111557
19:00+26ese378389 0.6 1011601
22:00+26ese38886 0.1 1012553
19 may, wed
wed1901:00+26ese3882100 0.3 1012693
04:00+26se2780100 0.0 1011611
07:00+26ese278038 0.1 1012620
10:00+30ese465725 0.1 10131616
13:00+30ese466211 0.4 10121520
16:00+29ese366763 2.3 10111140
19:00+27ese36735 2.3 1011866
22:00+25ese39888 0.3 1012609